Regional Weather Roundup
Issued by NWS

Home | Current Version | Previous Version | Text Only | Print | Product List | Glossary Off
Versions: 1 2 3 4 5 6 7 8 9 10 11 12 13 14 15 16 17 18 19 20 21 22 23 24 25 26 27 28 29 30 31 32 33 34 35 36 37 38 39 40 41 42 43 44 45 46 47 48 49 50

000
ASUS46 KSTO 010409
RWRCA

NORTHERN AND CENTRAL CA REGIONAL WEATHER ROUNDUP
NATIONAL WEATHER SERVICE SACRAMENTO CA
900 PM PDT THU JUL 31 2014

NOTE: FAIR INDICATES FEW OR NO CLOUDS BELOW 12,000 FEET WITH NO
SIGNIFICANT WEATHER AND/OR OBSTRUCTIONS TO VISIBILITY.

CAZ001-003-010500-
NORTHWEST AREA

CITY           SKY/WX    TMP DP  RH WIND       PRES   REMARKS
CRESCENT CITY  FOG       53  52  96 SE5       29.99R VSB 3/4
ARCATA         NOT AVBL
SHELTER COVE   NOT AVBL
UKIAH          CLEAR     87  39  18 NW7       29.89R
$$

CAZ006-505>513-010500-
BAY AREA

CITY           SKY/WX    TMP DP  RH WIND       PRES   REMARKS
SANTA ROSA     CLEAR     62  54  74 SE5       29.88R
SAN RAFAEL     N/A       85  MM  MM MISG
NAPA           CLEAR     64  60  87 S12       29.87R
CONCORD        PTCLDY    75  55  49 N7        29.85R
OAKLAND CITY   N/A       62  MM  MM MISG
OAKLAND        PTCLDY    62  56  80 W13       29.91R
SAN FRAN CITY  N/A       58  MM  94 MISG
SAN FRAN ARPT  PTCLDY    62  57  83 NW20      29.90R
LIVERMORE      PTCLDY    78  52  40 NW6       29.87R
HAYWARD        PTCLDY    64  60  87 NW8       29.90R
REDWOOD CITY   N/A       MM  MM  MM MISG
MOFFETT ARPT   CLEAR     66  60  81 NW6       29.91R
SAN JOSE ARPT  PTCLDY    68  60  75 W7        29.90R
$$
CAZ034-037-514>518-010500-
CENTRAL COAST

CITY           SKY/WX    TMP DP  RH WIND       PRES   REMARKS
WATSONVILLE    CLOUDY    61  57  87 CALM      29.94R
SALINAS        CLOUDY    62  57  83 W8        29.93R
MONTEREY       CLOUDY    60  57  89 CALM      29.94S
PT PIEDRAS BLS NOT AVBL
SAN LUIS OBISP PTCLDY    62  58  86 NW8G24    29.93R
SANTA MARIA    CLOUDY    63  59  87 NW6       29.94R FOG
$$
CAZ015-016-010500-
NORTHERN SACRAMENTO VALLEY

CITY           SKY/WX    TMP DP  RH WIND       PRES   REMARKS
REDDING        PTCLDY    95  55  26 S6        29.79R HX  93
RED BLUFF      CLEAR     91  63  39 SE8       29.80R HX  92
OROVILLE       CLEAR     92  56  29 E6        29.80R HX  90
$$
CAZ016>018-010500-
SOUTHERN SACRAMENTO VALLEY

CITY           SKY/WX    TMP DP  RH WIND       PRES   REMARKS
AUBURN         CLEAR     82  46  28 CALM      29.91R
BEALE AFB      CLEAR     89  56  32 E5        29.79R
LINCOLN        FAIR      88  46  23 S6        29.79R
MARYSVILLE     CLEAR     90  56  31 S5        29.78R
SAC INTL ARPT  PTCLDY    86  56  35 S9        29.78R
MATHER AIRPORT CLEAR     84  55  37 S6        29.81R
DOWNTOWN SAC   N/A       88  MM  MM MISG
SAC EXEC ARPT  PTCLDY    82  54  37 S5        29.80R
VACAVILLE      CLEAR     81  53  37 S8        29.81R
TRAVIS AFB     PTCLDY    73  56  55 SW22      29.79F
$$
CAZ019>021-010500-
SAN JOAQUIN VALLEY

CITY           SKY/WX    TMP DP  RH WIND       PRES   REMARKS
STOCKTON       CLEAR     87  47  24 W7        29.81R
MODESTO        CLEAR     91  50  24 N7        29.81R
MERCED         CLEAR     90  56  31 N7        29.81R
LEMOORE        PTCLDY    88  57  34 NW9       29.81R
FRESNO         CLEAR     96  47  18 NW6       29.81R HX  92
HANFORD        MOCLDY    93  56  28 NW8       29.80R HX  91
PORTERVILLE    CLEAR     93  57  29 N3        29.83R HX  92
BAKERSFIELD    CLEAR     94  49  21 N5        29.82R HX  90
$$
CAZ011-012-071-010500-
NORTHERN MOUNTAINS

CITY           SKY/WX    TMP DP  RH WIND       PRES   REMARKS
YREKA          CLEAR     85  48  27 NW7       29.99R
MOUNT SHASTA   CLEAR     74  41  30 CALM      30.04R
ALTURAS        PTCLDY    81  40  23 N9        30.09R
$$
CAZ011-012-071-010500-
SIERRA NEVADA MTNS

CITY           SKY/WX    TMP DP  RH WIND       PRES   REMARKS
BLUE CANYON    CLEAR     76  37  24 CALM      30.22R
TRUCKEE        PTCLDY    59  54  82 SE3       30.26S
TAHOE VLY ARPT MOCLDY    68  50  52 CALM      30.28R
MAMMOTH LAKES  FAIR      63  45  51 E5        30.33R
$$




USA.gov is the U.S. government's official web portal to all federal, state and local government web resources and services.